Vertical_Velocity
-6 -3 -1 0 1 0 -0 1 -1 -1 4 2 -1 3 -2 -2 5 0 2 -1 -3 1 -1 1 -0 -1 5 -2 -4 -2 -1 -2 -1 1 0 -2 -0 2 0 -0 2 -3 -1
10 4 -2 3 1 -0 0 -1 1 -1 -4 1 -0 4 1 1 -1 6 3 -2 2 1 1 1 1 -2 -3 -0 -0 -6 -4 -2 1 1 1 -2 0 0 -1 -0 -1 3 0
-2 0 1 -7 -0 2 0 0 0 4 0 -0 2 -0 -0 -0 -0 -4 3 -0 2 -0 5 2 1 4 -2 -0 -4 -2 -3 -6 -3 0 -0 1 -0 -1 -0 -2 -1 -0 1
-2 2 5 3 -6 -2 0 -1 -2 -0 1 -2 2 0 -2 1 3 2 -3 7 -1 2 5 1 -1 -1 2 -4 -2 -3 -0 -2 -3 -1 0 -0 1 0 -1 1 -2 -1 1
-3 -3 -1 1 4 -1 -1 -0 -3 -2 -2 2 -2 3 -1 -1 2 4 -1 -1 1 0 2 1 -1 -1 2 -0 0 -4 -1 -4 -2 -2 -1 -1 -0 0 -0 0 -0 -2 1
0 -1 -0 -1 -3 -3 -3 -4 1 -4 -1 -0 1 -2 3 -0 -1 1 0 -3 7 7 -4 3 1 -1 3 -2 1 -1 -5 -2 -2 -1 -0 -2 -2 -0 1 0 2 0 1
-2 -2 1 -2 3 2 0 -2 -4 0 -3 -2 -1 0 -2 2 -2 -1 4 -2 0 9 -0 -0 1 1 1 2 0 -2 -2 -3 -1 1 -1 0 -3 -1 0 2 1 1 0
-0 -0 1 1 0 -1 1 0 -5 -4 -3 -3 -1 -0 -1 -1 2 -2 3 1 -2 2 3 -0 2 -0 1 2 1 -0 -1 -1 -2 -1 -2 -1 1 -3 0 -1 -0 -1 -1
-2 -3 -3 0 0 0 -1 2 -0 1 -3 -5 -0 1 1 -2 -0 -0 1 0 4 -0 4 -2 4 1 1 0 3 -3 -0 -1 0 -3 -1 -4 1 -2 -4 -1 -2 -0 1
-0 -1 -1 -5 -1 0 0 -1 4 0 -2 -3 -2 1 1 1 -1 -2 1 2 -0 2 3 5 0 -0 -2 2 3 -1 -2 -0 -1 -0 -2 -5 0 2 0 2 -1 0 -2
-0 -2 0 2 -4 -5 -4 -4 -1 -2 -3 -2 -2 -2 0 0 3 0 -4 4 7 -0 -0 4 2 -2 0 -1 1 2 -2 0 1 -0 0 -3 -2 1 1 3 0 0 -0
-9 -6 -7 -5 -5 -4 -4 -5 -0 -2 0 -3 -1 -2 -1 -2 -2 2 -1 3 0 3 3 2 5 0 -1 1 -2 1 -1 -1 -0 1 -0 -3 -2 1 1 1 -0 0 1
-2 -5 -6 -9 -7 -7 -2 -3 -1 -0 -4 -5 0 -3 -1 -4 -2 3 1 -4 11 4 5 10 4 -1 -1 4 0 1 -2 -1 -0 0 -0 -1 -3 -2 -0 0 1 -1 1
-2 2 1 -1 -3 -3 -6 -6 -2 -1 -1 -6 -2 -2 -5 1 1 -4 4 -4 8 6 9 3 18 -2 -3 -2 2 -1 -3 -1 -1 0 1 1 -3 -4 -0 -2 -1 1 1
-2 -2 -2 -1 -0 0 -1 -6 -5 -2 -4 -3 0 -4 -4 -2 -4 -1 3 1 -3 13 -1 2 11 5 2 -1 1 -1 -3 -3 -1 -2 1 1 -2 -2 -3 0 -1 0 1
-3 -1 -2 1 -0 -0 1 -1 -2 -4 -2 -0 -5 -6 1 -2 -8 5 -4 4 -6 5 0 2 -4 1 5 2 -0 -1 -1 1 0 1 -1 0 -3 -0 -0 -5 0 -0 -0
-2 -3 -3 -2 -1 -2 -1 -0 3 2 -3 -2 -4 -2 -1 -0 -2 -9 2 -3 6 3 -5 8 -1 11 1 6 2 2 -2 -3 -1 2 1 -0 -0 -2 -2 -1 -2 -1 1
-2 -1 -5 -5 -2 -3 -0 0 4 -1 3 1 -3 -1 3 -0 -6 -10 4 -4 -5 2 -11 3 15 3 12 12 1 -3 2 0 0 -0 1 -0 -0 1 -1 1 -1 -2 -0
-4 -1 -1 -1 0 -1 -2 -1 -0 1 -2 -4 5 3 1 -4 -1 3 -6 0 1 -7 4 -8 10 -6 -2 3 10 1 -3 -1 -2 -1 -3 -0 -0 -1 -0 1 0 -1 -1
-4 -3 -1 -3 -2 -2 -2 1 -1 -3 4 2 0 -5 -6 -8 4 -4 -4 2 -3 1 5 -14 14 -9 -6 2 11 9 2 -0 2 -1 -1 -1 0 1 -4 -0 -1 -1 0
-2 -3 -2 -3 -2 -1 0 0 4 2 -0 4 -0 -4 -20 0 -6 3 -6 -0 7 8 -10 0 -8 3 6 26 6 14 8 5 4 1 -0 -1 -2 0 -1 -2 -2 -1 0
-2 0 -2 -1 -1 -1 -0 -1 -2 -3 -3 -7 -4 2 3 2 -5 -5 -8 1 4 -15 -4 2 -6 0 -3 10 11 20 14 8 6 -2 -0 -2 -2 -1 1 -1 -2 -0 -0
-1 -2 -2 -1 -1 -1 -1 -0 0 3 1 2 4 1 -3 1 -2 -4 -1 -2 5 2 -5 1 -0 -0 2 9 1 19 3 3 -5 6 -3 -2 -2 -2 -2 2 2 0 1
-2 -2 -1 -1 -3 -2 -1 -1 -2 -4 -2 -4 -5 -1 -3 -0 -2 -1 0 -1 6 -1 1 1 -3 -4 8 3 -12 9 5 4 11 1 -1 -5 0 -3 -2 -2 -0 0 1
-2 -2 -2 -2 -2 -2 -3 -1 -1 -3 -4 -2 -1 -3 -0 -1 -6 -1 -1 1 -3 -0 -0 -9 -9 5 8 -4 -2 -3 6 2 13 5 2 -5 -2 -3 -1 -4 -1 -0 1
-2 -2 -2 -3 -2 -3 -4 -3 -0 -1 -4 -2 -2 -0 -3 -2 -1 -0 -2 0 4 -2 -10 -7 0 2 -1 2 -0 4 -5 6 -4 6 3 9 -2 -1 2 -0 -4 -1 0
Height
1588 1586 1583 1581 1578 1576 1574 1572 1570 1570 1569 1569 1568 1568 1568 1568 1570 1569 1568 1566 1566 1566 1566 1566 1566 1566 1565 1565 1566 1566 1565 1564 1564 1562 1562 1562 1562 1562 1561 1560 1560 1560 1559
1587 1587 1583 1580 1578 1577 1574 1573 1571 1570 1569 1568 1568 1568 1568 1568 1569 1570 1569 1569 1568 1568 1567 1567 1568 1568 1568 1567 1567 1568 1567 1568 1568 1566 1565 1564 1564 1564 1563 1562 1562 1561 1561
1587 1585 1582 1579 1577 1575 1574 1572 1571 1569 1569 1568 1567 1567 1568 1569 1569 1570 1570 1570 1569 1569 1569 1569 1570 1570 1570 1570 1570 1569 1569 1569 1570 1569 1568 1567 1566 1566 1565 1564 1563 1563 1562
1585 1583 1580 1578 1576 1574 1572 1571 1570 1568 1567 1566 1566 1566 1567 1568 1569 1569 1570 1570 1570 1570 1570 1570 1571 1571 1572 1571 1571 1571 1571 1571 1571 1570 1570 1569 1567 1566 1565 1565 1564 1563 1563
1585 1583 1579 1575 1572 1572 1571 1569 1568 1567 1567 1566 1566 1566 1566 1568 1568 1568 1569 1570 1571 1571 1571 1571 1572 1572 1572 1572 1572 1572 1572 1571 1572 1571 1570 1569 1567 1566 1565 1565 1564 1564 1564
1585 1583 1580 1576 1571 1569 1568 1567 1566 1566 1565 1565 1564 1565 1565 1565 1567 1568 1568 1569 1571 1571 1572 1573 1573 1573 1573 1573 1573 1572 1572 1572 1572 1571 1570 1569 1567 1567 1566 1565 1564 1564 1564
1584 1582 1578 1575 1572 1570 1567 1566 1565 1564 1563 1563 1563 1562 1563 1563 1564 1567 1568 1567 1569 1570 1571 1572 1573 1574 1574 1574 1574 1572 1572 1573 1573 1572 1570 1569 1568 1569 1568 1567 1566 1566 1565
1582 1580 1577 1574 1570 1568 1566 1563 1563 1562 1561 1560 1561 1561 1560 1561 1561 1563 1566 1566 1567 1569 1570 1571 1572 1573 1574 1574 1573 1572 1572 1573 1573 1572 1571 1570 1571 1569 1570 1569 1569 1568 1567
1580 1579 1576 1574 1570 1567 1565 1563 1561 1560 1559 1559 1559 1558 1558 1558 1558 1558 1562 1565 1565 1566 1568 1570 1572 1573 1573 1574 1573 1572 1572 1572 1572 1572 1572 1571 1572 1571 1572 1571 1571 1571 1570
1579 1576 1574 1573 1572 1568 1566 1563 1561 1559 1557 1557 1557 1556 1555 1555 1555 1555 1556 1561 1563 1564 1566 1567 1569 1571 1572 1573 1574 1572 1571 1572 1572 1572 1572 1572 1574 1573 1573 1572 1572 1572 1571
1577 1576 1574 1572 1569 1568 1567 1564 1562 1560 1557 1556 1555 1555 1553 1551 1551 1553 1553 1555 1559 1560 1562 1564 1566 1568 1570 1571 1572 1571 1571 1571 1572 1572 1573 1573 1574 1574 1573 1574 1572 1573 1573
1574 1574 1573 1571 1570 1567 1566 1564 1563 1561 1558 1555 1554 1553 1552 1550 1548 1549 1551 1552 1554 1556 1559 1561 1563 1565 1567 1569 1569 1570 1570 1570 1571 1572 1573 1573 1574 1574 1574 1574 1573 1573 1573
1572 1573 1571 1569 1568 1568 1567 1564 1562 1560 1557 1555 1553 1551 1551 1549 1549 1547 1548 1549 1549 1552 1555 1558 1559 1561 1564 1567 1567 1568 1568 1569 1571 1572 1572 1573 1573 1574 1574 1574 1574 1574 1574
1574 1571 1569 1567 1567 1567 1566 1564 1562 1559 1556 1555 1553 1550 1549 1549 1547 1546 1545 1547 1545 1547 1548 1550 1552 1557 1561 1564 1565 1565 1567 1568 1570 1571 1572 1572 1572 1573 1574 1574 1575 1575 1574
1571 1569 1568 1567 1566 1565 1563 1562 1562 1559 1557 1555 1553 1551 1548 1547 1546 1545 1542 1545 1545 1543 1544 1546 1543 1552 1557 1560 1562 1563 1564 1566 1568 1570 1571 1571 1571 1572 1573 1574 1575 1575 1575
1570 1569 1568 1566 1564 1562 1560 1559 1559 1557 1557 1555 1552 1550 1549 1546 1544 1543 1542 1542 1544 1543 1542 1542 1545 1546 1553 1556 1559 1560 1562 1564 1566 1567 1569 1570 1570 1570 1571 1573 1574 1575 1575
1568 1567 1565 1564 1562 1561 1560 1559 1556 1554 1553 1553 1552 1551 1548 1544 1544 1544 1542 1540 1539 1542 1539 1540 1543 1543 1548 1553 1556 1557 1559 1562 1564 1566 1567 1568 1568 1569 1571 1572 1573 1574 1575
1566 1565 1563 1563 1562 1560 1557 1557 1554 1554 1553 1551 1551 1550 1547 1544 1544 1544 1541 1539 1537 1537 1541 1540 1539 1540 1542 1548 1552 1554 1556 1559 1562 1565 1566 1567 1568 1568 1569 1571 1571 1573 1574
1564 1563 1562 1561 1560 1558 1557 1554 1554 1552 1551 1549 1551 1546 1544 1543 1543 1541 1541 1538 1535 1535 1542 1535 1536 1536 1538 1542 1548 1550 1553 1556 1558 1561 1563 1565 1566 1567 1567 1569 1570 1571 1572
1562 1562 1560 1559 1558 1557 1555 1554 1553 1552 1550 1548 1546 1544 1543 1544 1542 1540 1540 1538 1538 1538 1532 1534 1534 1535 1536 1539 1543 1547 1549 1553 1555 1557 1559 1562 1563 1564 1565 1566 1567 1568 1569
1560 1560 1559 1558 1557 1555 1554 1552 1551 1551 1548 1546 1543 1543 1543 1546 1539 1539 1538 1536 1533 1526 1529 1535 1534 1538 1538 1535 1538 1543 1545 1549 1552 1553 1556 1558 1560 1561 1561 1562 1564 1565 1566
1557 1557 1557 1556 1555 1554 1552 1549 1547 1545 1544 1543 1543 1543 1541 1538 1538 1536 1538 1534 1528 1531 1533 1533 1536 1538 1538 1533 1534 1539 1541 1547 1548 1549 1552 1553 1555 1557 1557 1558 1560 1562 1563
1554 1555 1555 1555 1554 1552 1551 1549 1547 1545 1544 1543 1541 1540 1539 1539 1537 1537 1537 1534 1532 1533 1527 1530 1535 1536 1535 1532 1533 1538 1539 1539 1544 1543 1545 1548 1549 1551 1553 1555 1556 1558 1560
1551 1552 1553 1552 1552 1551 1550 1547 1545 1543 1541 1540 1539 1538 1537 1536 1535 1536 1534 1533 1532 1530 1528 1526 1531 1534 1532 1530 1533 1536 1539 1538 1541 1538 1539 1542 1544 1545 1547 1550 1552 1554 1556
1548 1549 1550 1550 1550 1549 1548 1547 1544 1543 1542 1541 1539 1537 1538 1535 1535 1534 1531 1530 1528 1526 1523 1524 1528 1528 1530 1529 1534 1533 1533 1537 1537 1535 1531 1534 1538 1539 1541 1544 1547 1549 1551
1544 1545 1546 1547 1547 1547 1546 1545 1544 1543 1542 1541 1539 1538 1536 1535 1534 1532 1529 1528 1527 1528 1528 1528 1524 1522 1525 1523 1527 1528 1533 1534 1533 1534 1531 1529 1531 1532 1535 1538 1541 1543 1546